When you browse on this site, cookies collect data to enhance your experience and personalize the content and advertising you see.
Visit our Privacy Policy to learn more. By continuing to use the site, you agree to this use of cookies and data.
  • In Denmark
  • List of Countries
  • For 7 days
  • Water Temperature
  • Satellite Maps
  • Weather Map
  • Weather Widgets
  • user-avatar
    Login

    Hourly Weather Lampeter

    Today, 14 December, Friday

    Time Temperature Precipitation Wind Pressure Humidity
    00:00 0°C° 0 mm 5 mps 760 mmHg 87%
    01:00 0°C° 0 mm 5 mps 760 mmHg 87%
    02:00 -1°C° 0 mm 5 mps 760 mmHg 87%
    03:00 -1°C° 0 mm 5 mps 760 mmHg 88%
    04:00 -1°C° 0 mm 5 mps 760 mmHg 87%
    05:00 -1°C° 0 mm 5 mps 760 mmHg 87%
    06:00 -1°C° 0 mm 5 mps 760 mmHg 86%
    07:00 -1°C° 0 mm 5 mps 760 mmHg 86%
    08:00 -1°C° 0 mm 5 mps 760 mmHg 85%
    09:00 -1°C° 0 mm 4 mps 760 mmHg 84%
    10:00 0°C° 0 mm 5 mps 760 mmHg 80%
    11:00 0°C° 0 mm 5 mps 760 mmHg 76%
    12:00 +1°C° 0 mm 6 mps 760 mmHg 71%
    13:00 +1°C° 0 mm 6 mps 760 mmHg 72%
    14:00 +1°C° 0 mm 6 mps 759 mmHg 73%
    15:00 -1°C° 0 mm 6 mps 759 mmHg 74%
    16:00 -1°C° 0 mm 6 mps 759 mmHg 74%
    17:00 -1°C° 0 mm 6 mps 759 mmHg 75%
    18:00 -2°C° 0 mm 6 mps 758 mmHg 75%
    19:00 -1°C° 0 mm 6 mps 758 mmHg 74%
    20:00 -1°C° 0 mm 7 mps 758 mmHg 73%
    21:00 -1°C° 0 mm 7 mps 758 mmHg 72%
    22:00 -1°C° 0 mm 7 mps 758 mmHg 73%
    23:00 -1°C° 0 mm 7 mps 758 mmHg 73%

    Tomorrow, 15 December, Saturday

    Time Temperature Precipitation Wind Pressure Humidity
    00:00 -1°C° 0 mm 7 mps 758 mmHg 73%
    01:00 -1°C° 0 mm 7 mps 757 mmHg 73%
    02:00 -1°C° 0 mm 8 mps 756 mmHg 73%
    03:00 -1°C° 0 mm 8 mps 756 mmHg 73%
    04:00 -1°C° 0 mm 8 mps 755 mmHg 72%
    05:00 -1°C° 0 mm 8 mps 754 mmHg 72%
    06:00 -1°C° 0 mm 9 mps 753 mmHg 71%
    07:00 -1°C° 0.1 mm 9 mps 752 mmHg 71%
    08:00 -1°C° 0.1 mm 9 mps 752 mmHg 71%
    09:00 -2°C° 0.1 mm 10 mps 751 mmHg 70%
    10:00 -2°C° 0.2 mm 10 mps 750 mmHg 73%
    11:00 -2°C° 0.2 mm 10 mps 749 mmHg 76%
    12:00 -2°C° 0.2 mm 10 mps 748 mmHg 78%
    13:00 0°C° 0.2 mm 10 mps 746 mmHg 78%
    14:00 0°C° 0.2 mm 10 mps 745 mmHg 79%
    15:00 -1°C° 0.2 mm 11 mps 743 mmHg 79%
    16:00 -1°C° 1 mm 11 mps 742 mmHg 81%
    17:00 -1°C° 1 mm 11 mps 740 mmHg 84%
    18:00 -1°C° 1 mm 12 mps 739 mmHg 86%
    19:00 -1°C° 1.8 mm 11 mps 738 mmHg 88%
    20:00 0°C° 1.8 mm 10 mps 737 mmHg 90%
    21:00 +1°C° 1.8 mm 10 mps 736 mmHg 91%
    22:00 +1°C° 1.5 mm 8 mps 736 mmHg 93%
    23:00 +2°C° 1.5 mm 7 mps 735 mmHg 94%

    Day after tomorrow, 16 December, Sunday

    Time Temperature Precipitation Wind Pressure Humidity
    00:00 +2°C° 1.5 mm 5 mps 735 mmHg 95%
    01:00 +2°C° 0.8 mm 6 mps 736 mmHg 93%
    02:00 +2°C° 0.8 mm 7 mps 736 mmHg 90%
    03:00 +1°C° 0.8 mm 8 mps 737 mmHg 87%
    04:00 +2°C° 0.1 mm 7 mps 738 mmHg 87%
    05:00 +2°C° 0.1 mm 7 mps 739 mmHg 87%
    06:00 +2°C° 0.1 mm 7 mps 739 mmHg 87%
    07:00 +2°C° 0 mm 6 mps 740 mmHg 88%
    08:00 +1°C° 0 mm 6 mps 741 mmHg 88%
    09:00 +1°C° 0 mm 5 mps 742 mmHg 89%
    10:00 +1°C° 0 mm 5 mps 743 mmHg 89%
    11:00 +2°C° 0 mm 5 mps 743 mmHg 89%
    12:00 +2°C° 0 mm 5 mps 744 mmHg 88%
    13:00 +2°C° 0 mm 5 mps 744 mmHg 89%
    14:00 +3°C° 0 mm 4 mps 744 mmHg 90%
    15:00 +3°C° 0 mm 4 mps 744 mmHg 90%
    16:00 +1°C° 0 mm 4 mps 745 mmHg 91%
    17:00 +1°C° 0 mm 4 mps 745 mmHg 91%
    18:00 +1°C° 0 mm 3 mps 746 mmHg 92%
    19:00 +1°C° 0 mm 3 mps 746 mmHg 92%
    20:00 +1°C° 0 mm 3 mps 746 mmHg 92%
    21:00 +1°C° 0 mm 3 mps 747 mmHg 92%
    22:00 +1°C° 0 mm 3 mps 747 mmHg 92%
    23:00 +1°C° 0 mm 3 mps 747 mmHg 93%

    17 December, Monday

    Time Temperature Precipitation Wind Pressure Humidity
    00:00 +1°C° 0 mm 3 mps 747 mmHg 93%
    01:00 +1°C° 0 mm 3 mps 748 mmHg 93%
    02:00 +1°C° 0 mm 3 mps 748 mmHg 94%
    03:00 +1°C° 0 mm 3 mps 748 mmHg 94%
    04:00 +1°C° 0 mm 3 mps 749 mmHg 94%
    05:00 +1°C° 0 mm 3 mps 749 mmHg 95%
    06:00 +1°C° 0 mm 3 mps 749 mmHg 95%
    07:00 +1°C° 0 mm 3 mps 750 mmHg 95%
    08:00 +1°C° 0 mm 3 mps 750 mmHg 95%
    09:00 +1°C° 0 mm 3 mps 751 mmHg 94%
    10:00 +2°C° 0 mm 3 mps 751 mmHg 93%
    11:00 +2°C° 0 mm 3 mps 751 mmHg 92%
    12:00 +3°C° 0 mm 4 mps 751 mmHg 90%
    13:00 +3°C° 0 mm 4 mps 750 mmHg 91%
    14:00 +3°C° 0 mm 5 mps 750 mmHg 91%
    15:00 +3°C° 0 mm 5 mps 749 mmHg 91%
    16:00 +3°C° 0.1 mm 6 mps 749 mmHg 90%
    17:00 +3°C° 0.1 mm 7 mps 748 mmHg 90%
    18:00 +4°C° 0.1 mm 7 mps 747 mmHg 90%
    19:00 +4°C° 0.5 mm 8 mps 747 mmHg 89%
    20:00 +5°C° 0.5 mm 9 mps 746 mmHg 89%
    21:00 +6°C° 0.5 mm 9 mps 745 mmHg 88%
    22:00 +6°C° 1 mm 10 mps 744 mmHg 88%
    23:00 +7°C° 1 mm 10 mps 744 mmHg 88%

    18 December, Tuesday

    Time Temperature Precipitation Wind Pressure Humidity
    00:00 +7°C° 1 mm 10 mps 743 mmHg 88%
    01:00 +7°C° 1.3 mm 10 mps 742 mmHg 88%
    02:00 +8°C° 1.3 mm 10 mps 741 mmHg 88%
    03:00 +8°C° 1.3 mm 9 mps 741 mmHg 89%
    04:00 +8°C° 0.7 mm 10 mps 740 mmHg 87%
    05:00 +8°C° 0.7 mm 10 mps 740 mmHg 85%
    06:00 +8°C° 0.7 mm 10 mps 739 mmHg 84%
    07:00 +8°C° 0.4 mm 11 mps 739 mmHg 83%
    08:00 +8°C° 0.4 mm 11 mps 738 mmHg 82%
    09:00 +8°C° 0.4 mm 12 mps 737 mmHg 81%
    10:00 +8°C° 0.6 mm 12 mps 737 mmHg 81%
    11:00 +7°C° 0.6 mm 12 mps 736 mmHg 81%
    12:00 +7°C° 0.6 mm 13 mps 736 mmHg 81%
    13:00 +7°C° 0.9 mm 11 mps 736 mmHg 84%
    14:00 +6°C° 0.9 mm 10 mps 736 mmHg 86%
    15:00 +5°C° 0.9 mm 8 mps 736 mmHg 89%
    16:00 +5°C° 0.3 mm 7 mps 736 mmHg 90%
    17:00 +5°C° 0.3 mm 6 mps 736 mmHg 90%
    18:00 +5°C° 0.3 mm 4 mps 736 mmHg 91%
    19:00 +5°C° 0 mm 4 mps 737 mmHg 90%
    20:00 +5°C° 0 mm 4 mps 737 mmHg 90%
    21:00 +5°C° 0 mm 4 mps 738 mmHg 90%
    22:00 +4°C° 0 mm 4 mps 738 mmHg 91%
    23:00 +4°C° 0 mm 4 mps 738 mmHg 92%

    19 December, Wednesday

    Time Temperature Precipitation Wind Pressure Humidity
    00:00 +3°C° 0 mm 4 mps 739 mmHg 93%
    01:00 +3°C° 0 mm 4 mps 739 mmHg 92%
    02:00 +3°C° 0 mm 4 mps 739 mmHg 92%
    03:00 +3°C° 0 mm 4 mps 739 mmHg 91%
    04:00 +3°C° 0 mm 4 mps 739 mmHg 90%
    05:00 +3°C° 0 mm 4 mps 739 mmHg 89%
    06:00 +1°C° 0 mm 4 mps 739 mmHg 88%
    07:00 +1°C° 0 mm 5 mps 739 mmHg 88%
    08:00 +1°C° 0 mm 5 mps 739 mmHg 88%
    09:00 +2°C° 0 mm 5 mps 739 mmHg 88%
    10:00 +2°C° 0 mm 5 mps 739 mmHg 86%
    11:00 +3°C° 0 mm 6 mps 739 mmHg 83%
    12:00 +4°C° 0 mm 6 mps 739 mmHg 81%
    13:00 +4°C° 0 mm 6 mps 738 mmHg 81%
    14:00 +4°C° 0 mm 6 mps 738 mmHg 82%
    15:00 +5°C° 0 mm 5 mps 737 mmHg 82%
    16:00 +4°C° 0.1 mm 6 mps 737 mmHg 84%
    17:00 +3°C° 0.1 mm 6 mps 737 mmHg 86%
    18:00 +3°C° 0.1 mm 6 mps 736 mmHg 87%
    19:00 +3°C° 0.2 mm 6 mps 736 mmHg 89%
    20:00 +3°C° 0.2 mm 5 mps 736 mmHg 90%
    21:00 +3°C° 0.2 mm 5 mps 736 mmHg 92%
    22:00 +3°C° 0.4 mm 5 mps 735 mmHg 92%
    23:00 +5°C° 0.4 mm 5 mps 735 mmHg 92%
    Show more